Regional Weather Roundup
Issued by NWS Newport/Morehead, NC

Current Version | Previous Version | Graphics & Text | Print | Product List | Glossary Off
Versions: 1 2 3 4 5 6 7 8 9 10 11 12 13 14 15 16 17 18 19 20 21 22 23 24 25 26 27 28 29 30 31 32 33 34 35 36 37 38 39 40 41 42 43 44 45 46 47 48 49 50

492
ASUS42 KMHX 191525
RWRMHX
WEATHER ROUNDUP FOR EASTERN NORTH CAROLINA
NATIONAL WEATHER SERVICE NEWPORT/MOREHEAD CITY NC
1000 AM EST SUN FEB 19 2017

NOTE: "FAIR" INDICATES FEW OR NO CLOUDS BELOW 12,000 FEET
WITH NO SIGNIFICANT WEATHER AND/OR OBSTRUCTIONS TO VISIBILITY

NCZ015>017-031-032-045>047-102-103-191600-
NORTH COAST

CITY           SKY/WX    TMP DP  RH WIND       PRES   REMARKS
EDENTON        SUNNY     61  45  56 NW8       29.92S
ELIZABETH CITY SUNNY     61  44  53 W12       29.90F
KITTY HAWK     NOT AVBL
MANTEO         SUNNY     58  45  60 NW9       29.91R

$$

NCZ045>047-081-094-103-104-191600-
CENTRAL COAST

CITY           SKY/WX    TMP DP  RH WIND       PRES   REMARKS
FRISCO         MOSUNNY   61  46  57 W10       29.94R HAZE

$$

NCZ095-097-098-100-101-191600-
SOUTHERN COAST

CITY           SKY/WX    TMP DP  RH WIND       PRES   REMARKS
BEAUFORT       SUNNY     59  48  67 W7        29.94R
CEDAR ISLAND   NOT AVBL
JACKSONVILLE   PTSUNNY   60  46  59 W8        29.97R
PINEY ISLAND   MOSUNNY  N/A N/A N/A W9        29.94R
WILMINGTON     MOSUNNY   60  48  64 W9        29.99R


$$

NCZ011>013-027>030-043-044-078>080-089-090>093-098-191600-
COASTAL PLAIN

CITY           SKY/WX    TMP DP  RH WIND       PRES   REMARKS
AHOSKIE          N/A     60  43  52 N3        29.94R
CLINTON        SUNNY     61  46  57 NW12      29.99R
ELIZABETHTOWN  SUNNY     60  47  60 NW8       29.99R
GOLDSBORO      SUNNY     61  44  53 W12       29.94R
GREENVILLE     SUNNY     64  43  45 NW7       29.95S
HAVELOCK       SUNNY     62  45  53 W7        29.95R
KENANSVILLE    NOT AVBL
KINSTON        SUNNY     63  43  48 NW6       29.96R
NEW BERN       SUNNY     61  45  55 W10       29.96R
RICHLANDS      PTSUNNY   59  47  64 VRB6      29.98R
ROCKY MOUNT    SUNNY     61  42  49 NW12G21   29.96R
WASHINGTON     SUNNY     62  43  49 W8        29.94R
WHITEVILLE     SUNNY     57  47  68 SW3       30.00R

$$

AMZ130-135-150-152-154-156-158-170-250-252-270-ANZ085-086-088-633-658-670-191600-
MARINE OBSERVATIONS

STATION/POSITION TIME  TEMP    WIND        PRES    WAVE   SWELL
                       AIR SEA DIR/SP/G            HT/PER HT/PER
                 (UTC) (F)     (DEG/KT/KT) (MB)    (FT/S) (FT/S)
CHESAPEAKE LIGHT NOT AVBL
64 E VA BEACH    1450   53 51  250/  8/ 10 1012.4    3/ 6   3/ 6
DUCK             1500   56 47  250/  6/  8 1012.2
2 E DUCK         1500      48                N/A     1/11
OREGON INLET     1500   53 51  180/  6/  7 1013.2
13E OREGON INLT  NOT AVBL
HATTERAS CG      1500   56 56  250/  8/ 10 1013.5
DIAMOND BUOY     1450   62 67  280/ 10/ 12 1013.6    2/ 7   2/ 7
CAPE LOOKOUT     1500   56     270/  9/ 11 1013.7
BEAUFORT LAB     1500   58 51  280/  3/  7 1012.9
30 SE NEW RVR IN 1508   59     290/ 12/ 17 1014.8
30 SE NEW RVR IN 1513      65                N/A     2/ 6
27 SE WRIGHTSVLE 1508   57 60  260/ 16/ 21 1014.4
5 SE WRIGHTSVLE  1508   56 55  290/  8/ 12 1015.2
225 S CAPE HAT   1450   68 71  170/ 16/ 17 1014.8    5/ 6   2/ 9
41 SE CHARLESTON 1450   61 68  290/ 12/ 16 1016.6    2/ 3   2/ 9

$$




USA.gov is the U.S. government's official web portal to all federal, state and local government web resources and services.